{"data":{"norad_id":63268,"intl_designator":"2025-053D","name":"STARLINK-11641 [DTC]","alt_names":[],"object_type":"PAYLOAD","status":"ACTIVE","operator":null,"country":"US","launch_date":"2025-03-15","launch_site_code":"AFETR","launch_vehicle":null,"mission":null,"orbit_class":"UNKNOWN","rcs_meters":null,"size_class":null,"mass_kg":null,"dimensions":null,"purposes":["comms"],"wikipedia_slug":null,"has_3d_model":false,"image_url":null,"decayed_at":null,"tle_current":{"epoch":"2026-09-20T18:22:17.507424Z","epoch_age_seconds":135913,"freshness":"FRESH","line1":"1 63268U 25053D   26263.76548041  .00155612  00000+0  11915-2 0  9992","line2":"2 63268  43.0006  16.0366 0002029 285.2203  74.8441 15.70881690 88354","mean_motion":15.7088169,"eccentricity":0.0002029,"inclination_deg":43.0006,"raan_deg":16.0366,"arg_perigee_deg":285.2203,"mean_anomaly_deg":74.8441,"bstar":0.0011915,"rev_number":8835,"period_min":91.668265609487,"perigee_km":355.00947371275,"apogee_km":357.74233905016,"semimajor_km":6734.5129063815,"source":"CELESTRAK","updated_at":"2026-09-21T09:00:34.962700Z"}}}